Merrill, WI

7:15 AM CST on February 14, 2016 (GMT -0600)
Merrill Municipal

Weather History for KRRL - August, 2013

Change the Weather History Date:

Saturday, August 17, 2013

  Actual Average (KAUW) Record (KAUW)
Temperature  
Mean Temperature 62 °F 68 °F  
Max Temperature 80 °F 78 °F 97 °F (1947)
Min Temperature 46 °F 57 °F 44 °F (1976)
Degree Days  
Heating Degree Days 2 1  
Month to date heating degree days 17  
Since 1 June heating degree days 129  
Since 1 July heating degree days 40  
Cooling Degree Days 0 4  
Month to date cooling degree days 74  
Year to date cooling degree days 334  
Since 1 June cooling degree days 315  
Growing Degree Days 12 (Base 50)    
Moisture  
Dew Point 53 °F    
Average Humidity 73    
Maximum Humidity 100    
Minimum Humidity 40    
Precipitation  
Precipitation 0.00 in 0.13 in 0.95 in (1998)
Month to date precipitation 2.34  
Year to date precipitation 20.39  
Snow  
Snow 0.00 in 0.00 in 0.00 in ()
Month to date snowfall 0.0  
Since 1 July snowfall 0.0  
Snow Depth -    
Sea Level Pressure  
Sea Level Pressure 30.21 in    
Wind  
Wind Speed 2 mph (SW)    
Max Wind Speed 12 mph    
Max Gust Speed 16 mph    
Visibility 8 miles    
Events Fog    
T = Trace of Precipitation, MM = Missing Value Source: NWS Daily Summary

Daily Weather History Graph

Daily Weather History Graph

Search for Another Location

Airport or City:

Trip Planner

Search our weather history database for the weather conditions in past years. The results will help you decide how hot, cold, wet, or windy it might be!

Date:

Astronomy

Aug. 17, 2013 Rise Set
Actual Time 6:02 AM CDT 8:01 PM CDT
Civil Twilight 5:30 AM CDT 8:33 PM CDT
Nautical Twilight 4:51 AM CDT 9:12 PM CDT
Astronomical Twilight 4:08 AM CDT 9:55 PM CDT
Moon 5:21 PM CDT (8/17) 2:00 AM CDT (8/17)
Length of Visible Light 15h 02m
Length of Day
13h 59m
Waxing Gibbous, 84% of the Moon is Illuminated
Aug 17
Waxing Gibbous
Aug 20
Full
Aug 28
Last Quarter
Sep 5
New
Sep 12
First Quarter

Hourly Weather History & Observations

Time (CDT) Temp. Dew Point Humidity Pressure Visibility Wind Dir Wind Speed Gust Speed Precip Events Conditions
12:15 AM 53.1 °F 52.5 °F 98% 30.21 in 5.0 mi Calm Calm - N/A   Clear
12:35 AM 53.4 °F 52.5 °F 97% 30.21 in 10.0 mi Calm Calm - N/A   Clear
12:55 AM 53.6 °F 53.2 °F 99% 30.21 in 1.8 mi Calm Calm - N/A   Mist
1:15 AM 51.3 °F 50.7 °F 98% 30.21 in 3.0 mi Calm Calm - N/A   Clear
1:35 AM 51.1 °F 50.7 °F 99% 30.21 in 5.0 mi Calm Calm - N/A   Clear
1:55 AM 51.4 °F 51.3 °F 99% 30.21 in 0.5 mi Calm Calm - N/A Fog Fog
2:15 AM 50.5 °F 50.4 °F 99% 30.22 in 0.2 mi Calm Calm - N/A Fog Fog
2:35 AM 48.4 °F 47.5 °F 97% 30.21 in 10.0 mi Calm Calm - N/A   Clear
2:55 AM 49.1 °F 49.1 °F 100% 30.22 in 1.2 mi Calm Calm - N/A   Mist
3:15 AM 48.0 °F 47.8 °F 99% 30.22 in 10.0 mi Calm Calm - N/A   Clear
3:35 AM 48.0 °F 47.3 °F 97% 30.22 in 10.0 mi Calm Calm - N/A   Clear
3:55 AM 49.3 °F 48.6 °F 97% 30.22 in 7.0 mi Calm Calm - N/A   Clear
4:15 AM 48.7 °F 47.5 °F 95% 30.22 in 1.8 mi Calm Calm - N/A   Mist
4:35 AM 47.5 °F 47.5 °F 100% 30.23 in 0.5 mi Calm Calm - N/A Fog Fog
4:55 AM 46.0 °F 45.9 °F 99% 30.23 in 7.0 mi Calm Calm - N/A   Clear
5:15 AM 47.1 °F 46.8 °F 99% 30.23 in 5.0 mi Calm Calm - N/A   Clear
5:35 AM 48.6 °F 48.6 °F 100% 30.24 in 3.0 mi West 3.5 mph - N/A   Mostly Cloudy
5:55 AM 46.0 °F 46.0 °F 100% 30.25 in 0.2 mi Calm Calm - N/A Fog Fog
6:15 AM 46.9 °F 46.9 °F 100% 30.24 in 0.2 mi Calm Calm - N/A   Unknown
6:35 AM 46.9 °F 46.9 °F 100% 30.25 in 2.0 mi Calm Calm - N/A   Scattered Clouds
6:55 AM 49.1 °F 49.1 °F 100% 30.25 in 1.8 mi Calm Calm - N/A   Mist
7:15 AM 51.1 °F 50.9 °F 99% 30.25 in 5.0 mi Calm Calm - N/A   Scattered Clouds
7:35 AM 53.2 °F 52.9 °F 99% 30.25 in 7.0 mi Calm Calm - N/A   Clear
7:55 AM 55.9 °F 54.9 °F 96% 30.25 in 10.0 mi Calm Calm - N/A   Clear
8:15 AM 57.4 °F 55.4 °F 93% 30.25 in 10.0 mi Calm Calm - N/A   Clear
8:35 AM 59.9 °F 56.7 °F 89% 30.26 in 10.0 mi Calm Calm - N/A   Clear
8:55 AM 61.7 °F 56.8 °F 84% 30.25 in 10.0 mi Calm Calm - N/A   Clear
9:15 AM 65.8 °F 56.5 °F 72% 30.25 in 10.0 mi Calm Calm - N/A   Clear
9:35 AM 68.4 °F 58.3 °F 70% 30.25 in 10.0 mi Calm Calm - N/A   Clear
9:55 AM 69.6 °F 57.9 °F 66% 30.25 in 10.0 mi Calm Calm - N/A   Clear
10:15 AM 71.6 °F 57.6 °F 61% 30.25 in 10.0 mi Calm Calm - N/A   Clear
10:35 AM 73.0 °F 54.3 °F 52% 30.25 in 10.0 mi Calm Calm - N/A   Clear
10:55 AM 73.8 °F 55.9 °F 54% 30.25 in 10.0 mi Calm Calm - N/A   Clear
11:15 AM 74.7 °F 55.6 °F 51% 30.25 in 10.0 mi SW 4.6 mph - N/A   Clear
11:35 AM 74.7 °F 55.6 °F 51% 30.24 in 10.0 mi West 6.9 mph - N/A   Clear
11:55 AM 73.9 °F 54.9 °F 51% 30.24 in 10.0 mi WSW 5.8 mph - N/A   Clear
12:15 PM 76.5 °F 53.4 °F 45% 30.24 in 10.0 mi SW 6.9 mph - N/A   Clear
12:35 PM 77.0 °F 54.1 °F 45% 30.23 in 10.0 mi WSW 5.8 mph - N/A   Scattered Clouds
12:55 PM 77.4 °F 54.7 °F 45% 30.22 in 10.0 mi SW 8.1 mph - N/A   Scattered Clouds
1:15 PM 77.2 °F 54.3 °F 45% 30.22 in 10.0 mi SSW 6.9 mph - N/A   Scattered Clouds
1:35 PM 77.7 °F 54.5 °F 45% 30.21 in 10.0 mi SW 9.2 mph - N/A   Clear
1:55 PM 76.5 °F 53.8 °F 45% 30.21 in 10.0 mi West 6.9 mph - N/A   Scattered Clouds
2:15 PM 76.8 °F 54.5 °F 46% 30.21 in 10.0 mi WSW 5.8 mph - N/A   Mostly Cloudy
2:35 PM 77.5 °F 55.2 °F 46% 30.20 in 10.0 mi SSW 4.6 mph - N/A   Scattered Clouds
2:55 PM 76.8 °F 54.0 °F 45% 30.20 in 10.0 mi SW 6.9 mph - N/A   Scattered Clouds
3:15 PM 79.5 °F 53.8 °F 41% 30.19 in 10.0 mi WSW 9.2 mph - N/A   Scattered Clouds
3:35 PM 79.7 °F 53.8 °F 41% 30.19 in 10.0 mi WSW 11.5 mph 16.1 mph N/A   Clear
3:55 PM 79.2 °F 53.1 °F 40% 30.19 in 10.0 mi SSW 4.6 mph - N/A   Scattered Clouds
4:35 PM 78.1 °F 54.3 °F 44% 30.18 in 10.0 mi SSW 5.8 mph - N/A   Scattered Clouds
4:55 PM 78.8 °F 53.8 °F 42% 30.18 in 10.0 mi WSW 6.9 mph - N/A   Clear
5:15 PM 78.8 °F 53.4 °F 41% 30.18 in 10.0 mi SSW 8.1 mph - N/A   Clear
5:35 PM 78.1 °F 53.2 °F 42% 30.17 in 10.0 mi SW 9.2 mph - N/A   Clear
5:55 PM 77.4 °F 53.6 °F 44% 30.17 in 10.0 mi SW 6.9 mph - N/A   Clear
6:15 PM 77.2 °F 54.0 °F 44% 30.17 in 10.0 mi SSW 9.2 mph - N/A   Clear
6:35 PM 76.6 °F 55.2 °F 47% 30.16 in 10.0 mi SSW 8.1 mph - N/A   Clear
6:55 PM 75.9 °F 54.7 °F 48% 30.16 in 10.0 mi SSW 6.9 mph - N/A   Clear
7:15 PM 74.3 °F 55.9 °F 53% 30.16 in 10.0 mi SSW 5.8 mph - N/A   Clear
7:35 PM 73.2 °F 55.8 °F 54% 30.17 in 10.0 mi Calm Calm - N/A   Clear
7:55 PM 72.3 °F 55.8 °F 56% 30.17 in 10.0 mi Calm Calm - N/A   Clear
8:15 PM 70.7 °F 55.6 °F 59% 30.17 in 10.0 mi SSW 3.5 mph - N/A   Clear
8:35 PM 69.1 °F 55.8 °F 62% 30.17 in 10.0 mi Calm Calm - N/A   Clear
8:55 PM 67.1 °F 55.8 °F 67% 30.17 in 10.0 mi Calm Calm - N/A   Clear
9:15 PM 64.0 °F 55.4 °F 73% 30.18 in 10.0 mi Calm Calm - N/A   Clear
9:35 PM 60.8 °F 54.0 °F 78% 30.18 in 10.0 mi Calm Calm - N/A   Clear
9:55 PM 57.4 °F 54.0 °F 88% 30.18 in 10.0 mi Calm Calm - N/A   Clear
10:15 PM 56.8 °F 53.8 °F 89% 30.18 in 10.0 mi Calm Calm - N/A   Clear
10:35 PM 56.8 °F 53.4 °F 88% 30.18 in 10.0 mi Calm Calm - N/A   Clear
10:55 PM 55.8 °F 54.5 °F 96% 30.18 in 10.0 mi Calm Calm - N/A   Clear
11:15 PM 53.8 °F 52.0 °F 94% 30.18 in 10.0 mi Calm Calm - N/A   Clear
11:35 PM 52.5 °F 51.1 °F 95% 30.18 in 10.0 mi Calm Calm - N/A   Clear
11:55 PM 52.7 °F 52.2 °F 98% 30.18 in 10.0 mi Calm Calm - N/A   Clear